Starlink 32188

operational
NORAD ID: 60365 Int'l Des: 2024-138 Owner: SPXS Country: US Constellation: starlink
LEOCIRCULAR

Über Starlink 32188

Beschreibung wird geladen...

Live-Position

3D-Globus wird geladen...

Nächste Überflüge

Höhenverlauf

Altitude vs Time

uPlot chart will show altitude changes over time

Zweizeiliger Elementsatz

1 60365U 24138L 25353.33059056 .00000636 00000-0 33606-4 0 9994
2 60365 53.1627 322.9068 0001417 77.0424 283.0735 15.30193399 78324
Epoch: 19. Dez. 2025 • Age: 22 hours

Aktueller Status

Höhe 480.0 km
Geschwindigkeit 7.63 km/s
Subsatellitenpunkt -17.01°S, 129.62°E
Startdatum 4. Aug. 2024
Alter 1.3 years
Typ internet

Technische Details

Klassifizierung Payload
Masse 730.00 kg
Trockenmasse 700.00 kg
Gesamtmasse 730.00 kg
Länge 0.30 m
Durchmesser 4.10 m
Spannweite 29.00 m
Form Box + pan
Hersteller SPXS
Bus-Typ Starlink V2M
Phasenstatus In Orbit
Besitzer/Staat SPXS/US

Große Konstellationen

Loading constellations...